Location: Unspecified
(43.8044°N, 11.0278°E)
Time: 04:56:17
(UTC+02:00)

CZ-3 Stage 3 - Visible Passes

Search period start: 21 October 2017 00:00
Search period end: 30 October 2017 23:00
Orbit: 420 x 34778 km, 31.0° (Epoch: 20 October)

Date Brightness Start Highest point End Pass type
(mag) Time Alt. Az. Time Alt. Az. Time Alt. Az.
22 Oct 4.2 05:30:45 21° SSW 05:33:04 29° SSE 05:45:34 10° ESE visible
25 Oct 4.2 05:21:56 24° S 05:23:47 28° SSE 05:36:01 10° ESE visible
28 Oct 4.3 05:13:06 26° S 05:14:29 28° SSE 05:26:27 10° ESE visible
